Weather History for Fort Leonard Wood, MO

Change the Weather History Date:

Saturday, July 19, 2014

  Actual Average Record
Temperature  
Mean Temperature 68 °F -  
Max Temperature 80 °F 86 °F 101 °F (2012)
Min Temperature 55 °F 69 °F 55 °F (2014)
Cooling Degree Days 2    
Growing Degree Days 18 (Base 50)    
Moisture  
Dew Point 60 °F    
Average Humidity 76    
Maximum Humidity 100    
Minimum Humidity 49    
Precipitation  
Precipitation 0.00 in - - ()
Sea Level Pressure  
Sea Level Pressure 30.04 in    
Wind  
Wind Speed 2 mph (East)    
Max Wind Speed 6 mph    
Max Gust Speed -    
Visibility 10 miles    
Events      
Averages and records for this station are not official NWS values.
T = Trace of Precipitation, MM = Missing Value Source: NWS Daily Summary

Daily Weather History Graph

Daily Weather History Graph

Search for Another Location

Airport:

Trip Planner

Search our weather history database for the weather conditions in past years. The results will help you decide how hot, cold, wet, or windy it might be!

Date:

Astronomy

Jul. 19, 2014 Rise Set
Actual Time 6:01 AM CDT 8:27 PM CDT
Civil Twilight 5:31 AM CDT 8:57 PM CDT
Nautical Twilight 4:54 AM CDT 9:34 PM CDT
Astronomical Twilight 4:13 AM CDT 10:15 PM CDT
Moon 12:33 AM CDT (7/19) 2:12 PM CDT (7/19)
Length of Visible Light 15h 26m
Length of Day
14h 25m
Last Quarter, 43% of the Moon is Illuminated
Jul 19
Last Quarter
Jul 26
New
Aug 3
First Quarter
Aug 10
Full
Aug 17
Last Quarter

Hourly Weather History & Observations

Time (CDT) Temp. Heat Index Dew Point Humidity Pressure Visibility Wind Dir Wind Speed Gust Speed Precip Events Conditions
12:58 AM 59.5 °F - 59.4 °F 99% 30.05 in 10.0 mi Calm Calm - N/A   Clear
1:58 AM 59.7 °F - 59.7 °F 100% 30.04 in 10.0 mi SSE 1.2 mph - N/A   Clear
2:58 AM 57.6 °F - 57.6 °F 100% 30.03 in 10.0 mi Calm Calm - N/A   Clear
3:58 AM 56.7 °F - 56.7 °F 100% 30.03 in 9.0 mi WSW 1.2 mph - N/A   Clear
4:58 AM 56.1 °F - 56.1 °F 100% 30.05 in 7.0 mi Calm Calm - N/A   Clear
5:58 AM 55.8 °F - 55.8 °F 100% 30.05 in 10.0 mi Calm Calm - N/A   Clear
6:58 AM 57.2 °F - 57.2 °F 100% 30.06 in 10.0 mi WSW 1.2 mph - N/A   Clear
7:58 AM 63.1 °F - 63.1 °F 100% 30.07 in 10.0 mi Calm Calm - N/A   Clear
8:59 AM 68.0 °F - 63.9 °F 87% 30.07 in 10.0 mi North 3.5 mph - N/A   Clear
9:58 AM 72.0 °F - 63.3 °F 74% 30.06 in 10.0 mi ENE 3.5 mph - N/A   Clear
10:56 AM 75.2 °F - 60.8 °F 61% 30.06 in 10.0 mi NNE 5.8 mph - N/A   Partly Cloudy
11:58 AM 76.5 °F - 60.3 °F 57% 30.06 in 10.0 mi East 3.5 mph - N/A   Partly Cloudy
12:58 PM 78.4 °F - 60.4 °F 54% 30.06 in 10.0 mi North 5.8 mph - N/A   Scattered Clouds
1:58 PM 79.3 °F - 58.8 °F 49% 30.04 in 10.0 mi Variable 2.3 mph - N/A   Mostly Cloudy
2:58 PM 78.8 °F - 57.9 °F 49% 30.04 in 10.0 mi Variable 2.3 mph - N/A   Scattered Clouds
3:58 PM 80.4 °F 81.3 °F 60.6 °F 51% 30.03 in 10.0 mi NW 5.8 mph - N/A   Scattered Clouds
4:58 PM 80.8 °F 81.4 °F 60.1 °F 49% 30.02 in 10.0 mi Variable 1.2 mph - N/A   Mostly Cloudy
5:58 PM 78.1 °F - 57.9 °F 50% 30.01 in 10.0 mi East 2.3 mph - N/A   Overcast
6:58 PM 79.2 °F - 58.8 °F 50% 30.01 in 10.0 mi SSE 4.6 mph - N/A   Clear
7:58 PM 74.7 °F - 64.4 °F 70% 30.01 in 10.0 mi SSE 1.2 mph - N/A   Clear
8:58 PM 67.5 °F - 64.4 °F 90% 30.01 in 10.0 mi South 1.2 mph - N/A   Clear
9:58 PM 66.4 °F - 63.0 °F 89% 30.02 in 10.0 mi East 2.3 mph - N/A   Clear